EZY78ET HEGN-EGKK

Flight info

Callsign EZY78ET
Flight time N/A
Altitude 34000
Route HGD V608 NABED T55 KUNKI P751 METRU/N0447F360 UM872 LATAN DCT VIE DCT ERITU DCT BELOV DCT RESIA DCT ELMUR DCT RIPUS DCT DITON DCT HOC DCT LUL DCT RLP DCT ROTSI DCT KOTUN DCT NINAL DCT KESAX DCT KUNAV
Aircraft A320/M-SDE3FGHIRWY/LB1

Departure

Time 2026-05-06 16:31
Airport Hurghada International Airport (HEGN)

Arrival

Time N/A
Airport London Gatwick Airport (EGKK)
Time Latitude Longitude Altitude Speed Heading
2026-05-06 16:01 27.18069 33.80584 58 ft 0 kts 65°
2026-05-06 16:21 27.18062 33.80566 50 ft 2 kts 65°
2026-05-06 16:22 27.18055 33.80549 52 ft 2 kts 65°
2026-05-06 16:22 27.18048 33.80531 50 ft 2 kts 65°
2026-05-06 16:22 27.18041 33.80515 52 ft 1 kts 68°
2026-05-06 16:22 27.18037 33.80498 52 ft 3 kts 98°
2026-05-06 16:23 27.18043 33.80479 55 ft 3 kts 134°
2026-05-06 16:23 27.18054 33.80469 53 ft 2 kts 149°
2026-05-06 16:23 27.18067 33.80460 52 ft 1 kts 152°
2026-05-06 16:23 27.18076 33.80456 50 ft 0 kts 165°
2026-05-06 16:25 27.18050 33.80464 55 ft 8 kts 165°
2026-05-06 16:25 27.17982 33.80484 55 ft 12 kts 166°
2026-05-06 16:25 27.17900 33.80508 53 ft 13 kts 165°
2026-05-06 16:26 27.17812 33.80535 54 ft 14 kts 165°
2026-05-06 16:26 27.17703 33.80567 54 ft 16 kts 165°
2026-05-06 16:26 27.17601 33.80598 52 ft 14 kts 165°
2026-05-06 16:26 27.17530 33.80618 52 ft 9 kts 173°
2026-05-06 16:27 27.17483 33.80570 55 ft 11 kts 251°
2026-05-06 16:27 27.17465 33.80491 57 ft 12 kts 255°
2026-05-06 16:27 27.17437 33.80410 51 ft 10 kts 224°
2026-05-06 16:27 27.17353 33.80420 51 ft 19 kts 163°
2026-05-06 16:28 27.17186 33.80467 50 ft 28 kts 167°
2026-05-06 16:28 27.17006 33.80522 51 ft 26 kts 165°
2026-05-06 16:28 27.16808 33.80580 46 ft 31 kts 164°
2026-05-06 16:28 27.16607 33.80643 48 ft 28 kts 164°
2026-05-06 16:29 27.16420 33.80694 45 ft 27 kts 165°
2026-05-06 16:29 27.16259 33.80743 43 ft 22 kts 165°
2026-05-06 16:29 27.16168 33.80762 40 ft 10 kts 193°
2026-05-06 16:29 27.16141 33.80702 41 ft 10 kts 257°
2026-05-06 16:30 27.16131 33.80640 42 ft 7 kts 268°
2026-05-06 16:30 27.16147 33.80610 42 ft 7 kts 323°
2026-05-06 16:30 27.16394 33.80531 44 ft 66 kts 345°
2026-05-06 16:30 27.17028 33.80342 46 ft 121 kts 345°
2026-05-06 16:31 27.17983 33.80052 93 ft 160 kts 343°
2026-05-06 16:31 27.19032 33.79723 767 ft 155 kts 343°
2026-05-06 16:31 27.20071 33.79382 1410 ft 158 kts 342°
2026-05-06 16:31 27.21178 33.79015 1674 ft 176 kts 342°
2026-05-06 16:32 27.22427 33.78602 1936 ft 196 kts 342°
2026-05-06 16:32 27.23816 33.78144 2199 ft 220 kts 342°
2026-05-06 16:32 27.25357 33.77639 2669 ft 238 kts 342°
2026-05-06 16:32 27.26968 33.77112 3390 ft 244 kts 342°
2026-05-06 16:33 27.28614 33.76574 4144 ft 249 kts 341°
2026-05-06 16:33 27.30293 33.76022 4897 ft 253 kts 339°
2026-05-06 16:33 27.31814 33.75046 5584 ft 255 kts 314°
2026-05-06 16:34 27.32992 33.71400 6978 ft 263 kts 263°
2026-05-06 16:34 27.32490 33.69403 7668 ft 268 kts 253°
2026-05-06 16:34 27.31897 33.67414 8418 ft 269 kts 253°
2026-05-06 16:34 27.31298 33.65407 9128 ft 272 kts 253°
2026-05-06 16:35 27.30694 33.63375 9830 ft 275 kts 253°
2026-05-06 16:35 27.30075 33.61293 10207 ft 290 kts 252°
2026-05-06 16:35 27.29413 33.59056 10334 ft 313 kts 253°
2026-05-06 16:35 27.28708 33.56668 10630 ft 327 kts 253°
2026-05-06 16:36 27.27985 33.54223 11179 ft 332 kts 252°
2026-05-06 16:36 27.27254 33.51747 11786 ft 335 kts 252°
2026-05-06 16:36 27.26517 33.49250 12396 ft 338 kts 252°
2026-05-06 16:36 27.25771 33.46730 12988 ft 341 kts 252°
2026-05-06 16:37 27.25019 33.44185 13563 ft 345 kts 252°
2026-05-06 16:37 27.24259 33.41620 14103 ft 348 kts 252°
2026-05-06 16:37 27.23492 33.39032 14627 ft 351 kts 252°
2026-05-06 16:37 27.22720 33.36422 15166 ft 353 kts 252°
2026-05-06 16:38 27.22081 33.33756 15706 ft 355 kts 261°
2026-05-06 16:38 27.21930 33.30993 16229 ft 356 kts 272°
2026-05-06 16:38 27.22151 33.28213 16800 ft 358 kts 275°
2026-05-06 16:38 27.22387 33.25422 17338 ft 360 kts 275°
2026-05-06 16:39 27.22621 33.22611 17860 ft 363 kts 275°
2026-05-06 16:39 27.22854 33.19780 18385 ft 365 kts 275°
2026-05-06 16:39 27.23084 33.16931 18847 ft 367 kts 275°
2026-05-06 16:39 27.23314 33.14070 19299 ft 369 kts 275°
2026-05-06 16:40 27.23548 33.11191 19748 ft 371 kts 275°
2026-05-06 16:40 27.23782 33.08340 20196 ft 372 kts 275°
2026-05-06 16:40 27.24020 33.05438 20657 ft 374 kts 275°
2026-05-06 16:40 27.24256 33.02522 21114 ft 376 kts 275°
2026-05-06 16:41 27.24491 32.99593 21545 ft 377 kts 274°
2026-05-06 16:41 27.24729 32.96648 21997 ft 379 kts 276°
2026-05-06 16:41 27.25360 32.93775 22431 ft 382 kts 291°
2026-05-06 16:41 27.26684 32.91165 22840 ft 387 kts 300°
2026-05-06 16:42 27.28161 32.88627 23259 ft 389 kts 301°
2026-05-06 16:42 27.29655 32.86087 23643 ft 390 kts 301°
2026-05-06 16:42 27.31159 32.83534 23991 ft 392 kts 300°
2026-05-06 16:42 27.32666 32.80970 24323 ft 394 kts 300°
2026-05-06 16:43 27.34176 32.78396 24668 ft 395 kts 300°
2026-05-06 16:43 27.35694 32.75804 25000 ft 397 kts 300°
2026-05-06 16:43 27.37212 32.73208 25335 ft 398 kts 300°
2026-05-06 16:43 27.38736 32.70598 25665 ft 400 kts 300°
2026-05-06 16:44 27.40262 32.67978 25975 ft 401 kts 300°
2026-05-06 16:44 27.41794 32.65345 26285 ft 403 kts 300°
2026-05-06 16:44 27.43334 32.62696 26598 ft 405 kts 300°
2026-05-06 16:44 27.44876 32.60044 26905 ft 406 kts 300°
2026-05-06 16:45 27.46427 32.57377 27200 ft 408 kts 300°
2026-05-06 16:45 27.47983 32.54699 27503 ft 410 kts 300°
2026-05-06 16:45 27.49544 32.52008 27807 ft 411 kts 299°
2026-05-06 16:45 27.51113 32.49305 28105 ft 413 kts 299°
2026-05-06 16:46 27.52689 32.46593 28388 ft 414 kts 300°
2026-05-06 16:46 27.54272 32.43873 28650 ft 416 kts 300°
2026-05-06 16:46 27.55862 32.41140 28918 ft 418 kts 299°
2026-05-06 16:46 27.57454 32.38393 29187 ft 419 kts 299°
2026-05-06 16:47 27.59052 32.35633 29433 ft 421 kts 299°
2026-05-06 16:47 27.60654 32.32864 29687 ft 422 kts 299°
2026-05-06 16:47 27.62261 32.30080 29938 ft 424 kts 299°
2026-05-06 16:47 27.63871 32.27290 30176 ft 425 kts 299°
2026-05-06 16:48 27.64940 32.25437 30369 ft 424 kts 299°
2026-05-06 16:48 27.66548 32.22651 30693 ft 423 kts 299°
2026-05-06 16:48 27.68149 32.19874 31004 ft 422 kts 299°
2026-05-06 16:48 27.70263 32.16202 31404 ft 420 kts 298°
2026-05-06 16:49 27.71852 32.13438 31720 ft 419 kts 298°
2026-05-06 16:49 27.72925 32.11571 31924 ft 419 kts 298°
2026-05-06 16:49 27.74513 32.08813 32211 ft 418 kts 298°
2026-05-06 16:49 27.76076 32.06101 32527 ft 417 kts 298°
2026-05-06 16:50 27.77652 32.03362 32829 ft 416 kts 298°
2026-05-06 16:50 27.79225 32.00628 33133 ft 415 kts 298°
2026-05-06 16:50 27.80792 31.97899 33423 ft 414 kts 298°
2026-05-06 16:50 27.82356 31.95174 33715 ft 413 kts 298°
2026-05-06 16:51 27.83916 31.92452 33972 ft 413 kts 298°
2026-05-06 16:51 27.87016 31.87038 34057 ft 407 kts 298°
2026-05-06 16:52 27.90085 31.81673 34060 ft 406 kts 298°
2026-05-06 16:52 27.93146 31.76304 34064 ft 406 kts 298°
2026-05-06 16:53 27.96204 31.70941 34063 ft 406 kts 298°
2026-05-06 16:53 27.99263 31.65574 34066 ft 406 kts 298°
2026-05-06 16:54 28.02318 31.60205 34072 ft 406 kts 298°
2026-05-06 16:54 28.05369 31.54830 34071 ft 406 kts 298°
2026-05-06 16:55 28.08419 31.49451 34075 ft 405 kts 298°
2026-05-06 16:55 28.11468 31.44077 34077 ft 405 kts 298°
2026-05-06 16:56 28.14515 31.38704 34076 ft 405 kts 298°
2026-05-06 16:56 28.17556 31.33329 34079 ft 405 kts 298°
2026-05-06 16:57 28.20592 31.27946 34079 ft 405 kts 298°
2026-05-06 16:57 28.23604 31.22597 34085 ft 405 kts 298°
2026-05-06 16:58 28.26640 31.17217 34085 ft 405 kts 298°
2026-05-06 16:58 28.29673 31.11827 34087 ft 405 kts 298°
2026-05-06 16:59 28.32696 31.06437 34086 ft 405 kts 298°
2026-05-06 16:59 28.35725 31.01044 34090 ft 405 kts 298°
2026-05-06 17:00 28.38748 30.95647 34089 ft 405 kts 298°
2026-05-06 17:00 28.41766 30.90253 34097 ft 405 kts 298°
2026-05-06 17:01 28.44786 30.84859 34092 ft 404 kts 298°
2026-05-06 17:01 28.47801 30.79471 34093 ft 404 kts 298°
2026-05-06 17:02 28.50806 30.74082 34094 ft 403 kts 298°
2026-05-06 17:02 28.53805 30.68687 34098 ft 403 kts 298°
2026-05-06 17:03 28.56796 30.63299 34094 ft 403 kts 298°
2026-05-06 17:03 28.59783 30.57912 34092 ft 402 kts 298°
2026-05-06 17:04 28.62774 30.52526 34089 ft 402 kts 298°
2026-05-06 17:04 28.65760 30.47143 34087 ft 402 kts 298°
2026-05-06 17:05 28.68744 30.41760 34082 ft 402 kts 298°
2026-05-06 17:05 28.71723 30.36379 34086 ft 402 kts 298°
2026-05-06 17:06 28.74692 30.30989 34086 ft 401 kts 298°
2026-05-06 17:06 28.77658 30.25598 34085 ft 401 kts 298°
2026-05-06 17:07 28.80629 30.20207 34079 ft 401 kts 298°
2026-05-06 17:07 28.83593 30.14821 34075 ft 401 kts 298°
2026-05-06 17:08 28.86555 30.09428 34075 ft 401 kts 299°
2026-05-06 17:08 28.89513 30.04036 34070 ft 401 kts 298°
2026-05-06 17:09 28.92467 29.98641 34076 ft 401 kts 298°
2026-05-06 17:09 28.95419 29.93236 34073 ft 401 kts 299°
2026-05-06 17:10 28.98371 29.87826 34075 ft 402 kts 299°
2026-05-06 17:10 29.01329 29.82413 34071 ft 402 kts 299°
2026-05-06 17:11 29.04286 29.76996 34074 ft 402 kts 299°
2026-05-06 17:11 29.07237 29.71573 34069 ft 402 kts 299°
2026-05-06 17:12 29.10185 29.66141 34067 ft 402 kts 299°
2026-05-06 17:12 29.13134 29.60700 34071 ft 403 kts 299°
2026-05-06 17:13 29.16088 29.55252 34079 ft 403 kts 299°
2026-05-06 17:13 29.19034 29.49799 34068 ft 403 kts 299°
2026-05-06 17:14 29.21985 29.44338 34083 ft 404 kts 299°
2026-05-06 17:14 29.24940 29.38871 34079 ft 404 kts 299°
2026-05-06 17:15 29.27895 29.33394 34088 ft 404 kts 299°
2026-05-06 17:15 29.30846 29.27914 34083 ft 404 kts 299°
2026-05-06 17:16 29.33800 29.22430 34093 ft 404 kts 299°
2026-05-06 17:16 29.36730 29.16970 34089 ft 404 kts 299°
2026-05-06 17:17 29.39675 29.11470 34084 ft 404 kts 299°
2026-05-06 17:17 29.43168 29.06408 34085 ft 410 kts 315°
2026-05-06 17:18 29.47688 29.02361 34090 ft 412 kts 319°
2026-05-06 17:18 29.52249 28.98371 34083 ft 412 kts 319°
2026-05-06 17:19 29.56812 28.94375 34090 ft 412 kts 319°
2026-05-06 17:19 29.61368 28.90381 34087 ft 412 kts 319°
2026-05-06 17:20 29.65924 28.86381 34088 ft 412 kts 319°
2026-05-06 17:20 29.70478 28.82383 34087 ft 412 kts 319°
2026-05-06 17:21 29.75032 28.78370 34096 ft 412 kts 319°
2026-05-06 17:21 29.79581 28.74360 34098 ft 412 kts 319°
2026-05-06 17:22 29.84130 28.70348 34099 ft 412 kts 319°
2026-05-06 17:22 29.88681 28.66335 34104 ft 412 kts 319°
2026-05-06 17:23 29.93224 28.62314 34107 ft 412 kts 318°
2026-05-06 17:23 29.97763 28.58283 34107 ft 412 kts 319°
2026-05-06 17:24 30.02302 28.54260 34112 ft 412 kts 319°
2026-05-06 17:24 30.06846 28.50239 34115 ft 411 kts 319°
2026-05-06 17:25 30.11385 28.46220 34118 ft 411 kts 319°
2026-05-06 17:25 30.15922 28.42188 34119 ft 411 kts 319°
2026-05-06 17:26 30.20444 28.38159 34120 ft 410 kts 318°
2026-05-06 17:26 30.24956 28.34121 34111 ft 410 kts 319°
2026-05-06 17:27 30.29475 28.30085 34114 ft 410 kts 319°
2026-05-06 17:27 30.33988 28.26048 34117 ft 410 kts 319°
2026-05-06 17:28 30.38505 28.22013 34113 ft 410 kts 319°
2026-05-06 17:28 30.43021 28.17978 34118 ft 410 kts 319°
2026-05-06 17:29 30.47532 28.13942 34120 ft 410 kts 319°
2026-05-06 17:29 30.52039 28.09892 34125 ft 410 kts 319°
2026-05-06 17:30 30.56540 28.05833 34082 ft 411 kts 319°
2026-05-06 17:30 30.60308 28.02443 34087 ft 414 kts 319°
2026-05-06 17:31 30.64882 27.98331 34093 ft 417 kts 320°
2026-05-06 17:31 30.69472 27.94187 34098 ft 419 kts 319°
2026-05-06 17:32 30.74074 27.90024 34107 ft 419 kts 319°
2026-05-06 17:32 30.78682 27.85857 34114 ft 420 kts 319°
2026-05-06 17:33 30.83295 27.81675 34119 ft 420 kts 319°
2026-05-06 17:33 30.87877 27.77525 34132 ft 420 kts 319°
2026-05-06 17:34 30.92492 27.73344 34137 ft 420 kts 319°
2026-05-06 17:34 30.97093 27.69153 34137 ft 420 kts 319°
2026-05-06 17:35 31.01688 27.64960 34141 ft 419 kts 319°
2026-05-06 17:35 31.06290 27.60767 34146 ft 419 kts 319°
2026-05-06 17:36 31.13063 27.54333 34150 ft 416 kts 311°
2026-05-06 17:36 31.16501 27.48950 34146 ft 414 kts 302°
2026-05-06 17:37 31.19730 27.43394 34150 ft 414 kts 303°
2026-05-06 17:37 31.22964 27.37828 34147 ft 414 kts 303°
2026-05-06 17:38 31.26187 27.32263 34146 ft 414 kts 303°
2026-05-06 17:38 31.29411 27.26696 34143 ft 414 kts 302°
2026-05-06 17:39 31.33136 27.21570 34139 ft 417 kts 318°
2026-05-06 17:39 31.37955 27.17766 34140 ft 419 kts 325°
2026-05-06 17:40 31.42881 27.14109 34137 ft 419 kts 324°
2026-05-06 17:40 31.47793 27.10429 34134 ft 419 kts 324°
2026-05-06 17:41 31.52674 27.06771 34132 ft 419 kts 324°
2026-05-06 17:41 31.57581 27.03090 34134 ft 419 kts 324°
2026-05-06 17:42 31.62489 26.99398 34136 ft 419 kts 324°
2026-05-06 17:42 31.67393 26.95708 34132 ft 419 kts 324°
2026-05-06 17:43 31.72293 26.92016 34131 ft 418 kts 324°
2026-05-06 17:43 31.77189 26.88321 34129 ft 418 kts 324°
2026-05-06 17:44 31.82083 26.84630 34135 ft 418 kts 324°
2026-05-06 17:44 31.86982 26.80924 34126 ft 418 kts 324°
2026-05-06 17:45 31.91876 26.77216 34138 ft 418 kts 324°
2026-05-06 17:45 31.96774 26.73506 34136 ft 418 kts 324°
2026-05-06 17:46 32.01663 26.69795 34134 ft 418 kts 324°
2026-05-06 17:46 32.06550 26.66080 34136 ft 418 kts 324°
2026-05-06 17:47 32.11439 26.62363 34134 ft 418 kts 324°
2026-05-06 17:47 32.16329 26.58640 34134 ft 418 kts 324°
2026-05-06 17:48 32.21205 26.54910 34136 ft 418 kts 324°
2026-05-06 17:48 32.26084 26.51185 34140 ft 418 kts 324°
2026-05-06 17:49 32.30966 26.47453 34137 ft 418 kts 324°
2026-05-06 17:49 32.35838 26.43719 34138 ft 417 kts 324°
2026-05-06 17:50 32.40713 26.39977 34133 ft 417 kts 324°
2026-05-06 17:50 32.45583 26.36236 34138 ft 417 kts 324°
2026-05-06 17:51 32.50452 26.32501 34129 ft 417 kts 324°
2026-05-06 17:51 32.55313 26.28755 34132 ft 416 kts 324°
2026-05-06 17:52 32.60168 26.25006 34130 ft 416 kts 324°
2026-05-06 17:52 32.64984 26.21279 34125 ft 416 kts 324°
2026-05-06 17:53 32.69837 26.17528 34125 ft 416 kts 325°
2026-05-06 17:53 32.74694 26.13781 34127 ft 417 kts 325°
2026-05-06 17:54 32.79554 26.10014 34128 ft 417 kts 324°
2026-05-06 17:54 32.84401 26.06243 34130 ft 416 kts 324°
2026-05-06 17:55 32.89252 26.02473 34129 ft 416 kts 324°
2026-05-06 17:55 32.94102 25.98700 34129 ft 417 kts 325°
2026-05-06 17:56 32.98949 25.94912 34130 ft 417 kts 324°
2026-05-06 17:56 33.03800 25.91126 34131 ft 417 kts 325°
2026-05-06 17:57 33.08650 25.87338 34132 ft 417 kts 325°
2026-05-06 17:57 33.13505 25.83540 34133 ft 417 kts 325°
2026-05-06 17:58 33.18357 25.79738 34135 ft 417 kts 325°
2026-05-06 17:58 33.23211 25.75930 34138 ft 418 kts 325°
2026-05-06 17:59 33.28066 25.72117 34137 ft 418 kts 325°
2026-05-06 17:59 33.32926 25.68300 34143 ft 418 kts 325°
2026-05-06 18:00 33.37781 25.64477 34142 ft 418 kts 325°
2026-05-06 18:00 33.42637 25.60650 34144 ft 418 kts 325°
2026-05-06 18:01 33.47488 25.56815 34142 ft 418 kts 325°
2026-05-06 18:01 33.52336 25.52984 34145 ft 418 kts 325°
2026-05-06 18:02 33.57182 25.49146 34145 ft 417 kts 325°
2026-05-06 18:02 33.62025 25.45297 34140 ft 417 kts 325°
2026-05-06 18:03 33.66866 25.41446 34141 ft 417 kts 325°
2026-05-06 18:03 33.71709 25.37599 34136 ft 417 kts 325°
2026-05-06 18:04 33.76548 25.33755 34138 ft 417 kts 325°
2026-05-06 18:04 33.81387 25.29900 34137 ft 417 kts 325°
2026-05-06 18:05 33.86222 25.26033 34133 ft 417 kts 325°
2026-05-06 18:05 33.91048 25.22169 34132 ft 417 kts 325°
2026-05-06 18:06 33.95881 25.18313 34127 ft 417 kts 325°
2026-05-06 18:06 34.00610 25.14292 34122 ft 415 kts 317°
2026-05-06 18:07 34.04793 25.09507 34117 ft 415 kts 315°
2026-05-06 18:07 34.08988 25.04713 34120 ft 415 kts 315°
2026-05-06 18:08 34.13176 24.99919 34121 ft 415 kts 315°
2026-05-06 18:08 34.17360 24.95112 34120 ft 415 kts 315°
2026-05-06 18:09 34.21518 24.90326 34124 ft 415 kts 315°
2026-05-06 18:09 34.25697 24.85509 34118 ft 415 kts 315°
2026-05-06 18:10 34.29880 24.80683 34116 ft 416 kts 315°
2026-05-06 18:10 34.34053 24.75844 34113 ft 415 kts 315°